DLH44F EDDH-EDDC

Flight info

Callsign DLH44F
Flight time 0h 48m
Altitude 21000
Route RAMAR6G/33 RAMAR Z998 OSKAN OSKAN4A
Aircraft AT46/M-SDFGIRY/S

Departure

Time 2026-04-25 18:46
Airport Hamburg Helmut Schmidt Airport (EDDH)

Arrival

Time 2026-04-25 19:34
Airport Dresden Airport (EDDC)
Time Latitude Longitude Altitude Speed Heading
2026-04-25 18:24 53.62556 10.00391 38 ft 0 kts 244°
2026-04-25 18:43 53.62553 10.00378 38 ft 6 kts 243°
2026-04-25 18:43 53.62548 10.00335 38 ft 1 kts 293°
2026-04-25 18:43 53.62560 10.00319 38 ft 5 kts 326°
2026-04-25 18:44 53.62592 10.00281 39 ft 1 kts 289°
2026-04-25 18:44 53.62590 10.00274 39 ft 2 kts 258°
2026-04-25 18:44 53.62550 10.00209 38 ft 15 kts 209°
2026-04-25 18:44 53.62514 10.00134 38 ft 2 kts 291°
2026-04-25 18:45 53.62535 10.00057 39 ft 14 kts 297°
2026-04-25 18:45 53.62629 9.99944 40 ft 38 kts 329°
2026-04-25 18:45 53.63048 9.99584 44 ft 95 kts 329°
2026-04-25 18:45 53.63737 9.99074 369 ft 109 kts 329°
2026-04-25 18:46 53.64503 9.98434 644 ft 132 kts 327°
2026-04-25 18:46 53.65282 9.97745 1371 ft 127 kts 327°
2026-04-25 18:46 53.66065 9.97027 2031 ft 128 kts 328°
2026-04-25 18:46 53.66855 9.96336 2738 ft 127 kts 329°
2026-04-25 18:47 53.67631 9.95651 3459 ft 124 kts 330°
2026-04-25 18:47 53.68389 9.94984 4163 ft 121 kts 330°
2026-04-25 18:47 53.69149 9.94397 4825 ft 120 kts 346°
2026-04-25 18:47 53.70085 9.94523 5012 ft 156 kts 357°
2026-04-25 18:48 53.71222 9.94668 5452 ft 163 kts 355°
2026-04-25 18:48 53.72347 9.94749 6121 ft 160 kts 353°
2026-04-25 18:48 53.73448 9.94998 6749 ft 168 kts 15°
2026-04-25 18:48 53.74264 9.96616 7305 ft 198 kts 48°
2026-04-25 18:49 53.74907 9.98774 7614 ft 217 kts 52°
2026-04-25 18:49 53.75560 10.01199 7928 ft 232 kts 54°
2026-04-25 18:49 53.76238 10.03763 8243 ft 243 kts 54°
2026-04-25 18:49 53.76954 10.06423 8552 ft 252 kts 53°
2026-04-25 18:50 53.77690 10.09112 8854 ft 258 kts 53°
2026-04-25 18:50 53.78475 10.11883 9176 ft 264 kts 52°
2026-04-25 18:50 53.79281 10.14695 9502 ft 268 kts 52°
2026-04-25 18:50 53.80104 10.17565 9827 ft 272 kts 52°
2026-04-25 18:51 53.80949 10.20499 10004 ft 281 kts 52°
2026-04-25 18:51 53.81228 10.21464 10053 ft 283 kts 52°
2026-04-25 18:51 53.82603 10.26416 10773 ft 279 kts 59°
2026-04-25 18:51 53.82764 10.29804 11205 ft 301 kts 92°
2026-04-25 18:52 53.82002 10.33176 11654 ft 309 kts 114°
2026-04-25 18:52 53.80957 10.36311 12106 ft 309 kts 117°
2026-04-25 18:52 53.79919 10.39497 12568 ft 308 kts 111°
2026-04-25 18:52 53.79113 10.42802 13030 ft 303 kts 101°
2026-04-25 18:53 53.78557 10.46219 13516 ft 298 kts 95°
2026-04-25 18:53 53.78075 10.49617 13984 ft 298 kts 102°
2026-04-25 18:53 53.76965 10.52630 14409 ft 307 kts 136°
2026-04-25 18:53 53.75195 10.54599 14793 ft 305 kts 161°
2026-04-25 18:54 53.71272 10.57554 15379 ft 318 kts 157°
2026-04-25 18:54 53.69385 10.59608 15682 ft 324 kts 143°
2026-04-25 18:54 53.67683 10.62137 15981 ft 327 kts 137°
2026-04-25 18:55 53.66041 10.64775 16285 ft 329 kts 137°
2026-04-25 18:55 53.64365 10.67394 16587 ft 331 kts 139°
2026-04-25 18:55 53.62614 10.69945 16905 ft 332 kts 141°
2026-04-25 18:55 53.60836 10.72455 17218 ft 334 kts 141°
2026-04-25 18:56 53.59056 10.74995 17533 ft 334 kts 141°
2026-04-25 18:56 53.57297 10.77506 17849 ft 335 kts 141°
2026-04-25 18:56 53.55514 10.80052 18170 ft 335 kts 141°
2026-04-25 18:56 53.53736 10.82605 18473 ft 336 kts 141°
2026-04-25 18:57 53.51957 10.85171 18748 ft 336 kts 141°
2026-04-25 18:57 53.50190 10.87711 18937 ft 340 kts 141°
2026-04-25 18:57 53.48374 10.90314 19128 ft 343 kts 141°
2026-04-25 18:57 53.47785 10.91158 19190 ft 344 kts 141°
2026-04-25 18:58 53.44737 10.95517 19510 ft 347 kts 141°
2026-04-25 18:58 53.41055 11.00774 19899 ft 350 kts 141°
2026-04-25 18:58 53.39192 11.03432 20088 ft 351 kts 141°
2026-04-25 18:59 53.35462 11.08738 20482 ft 351 kts 141°
2026-04-25 18:59 53.31737 11.14023 20867 ft 352 kts 141°
2026-04-25 19:00 53.27976 11.19346 20999 ft 355 kts 141°
2026-04-25 19:00 53.26089 11.22015 21016 ft 355 kts 141°
2026-04-25 19:01 53.22319 11.27336 21035 ft 356 kts 141°
2026-04-25 19:01 53.20432 11.29994 21037 ft 356 kts 141°
2026-04-25 19:01 53.18539 11.32654 21036 ft 357 kts 141°
2026-04-25 19:01 53.16636 11.35326 21039 ft 357 kts 141°
2026-04-25 19:02 53.12835 11.40654 21036 ft 357 kts 141°
2026-04-25 19:02 53.11572 11.42424 21036 ft 357 kts 142°
2026-04-25 19:02 53.09035 11.45972 21038 ft 358 kts 142°
2026-04-25 19:03 53.06493 11.49522 21044 ft 358 kts 141°
2026-04-25 19:03 53.03337 11.53961 21040 ft 358 kts 141°
2026-04-25 19:03 53.01439 11.56633 21040 ft 358 kts 142°
2026-04-25 19:04 52.98243 11.61063 21042 ft 357 kts 142°
2026-04-25 19:04 52.96357 11.63682 21038 ft 357 kts 142°
2026-04-25 19:05 52.92534 11.68976 21038 ft 357 kts 142°
2026-04-25 19:05 52.88727 11.74227 21037 ft 357 kts 142°
2026-04-25 19:05 52.86815 11.76866 21041 ft 356 kts 142°
2026-04-25 19:06 52.84901 11.79501 21039 ft 356 kts 142°
2026-04-25 19:06 52.81099 11.84726 21038 ft 356 kts 142°
2026-04-25 19:06 52.79191 11.87346 21037 ft 355 kts 142°
2026-04-25 19:07 52.75416 11.92517 21039 ft 355 kts 142°
2026-04-25 19:07 52.73507 11.95125 21039 ft 355 kts 142°
2026-04-25 19:08 52.69696 12.00326 21039 ft 354 kts 143°
2026-04-25 19:08 52.67787 12.02929 21038 ft 354 kts 143°
2026-04-25 19:09 52.62113 12.10642 21035 ft 353 kts 143°
2026-04-25 19:09 52.60850 12.12351 21036 ft 353 kts 143°
2026-04-25 19:09 52.56433 12.18339 21033 ft 352 kts 143°
2026-04-25 19:10 52.54534 12.20900 21035 ft 352 kts 143°
2026-04-25 19:10 52.52635 12.23468 21034 ft 352 kts 143°
2026-04-25 19:10 52.50741 12.26019 21036 ft 352 kts 143°
2026-04-25 19:10 52.48874 12.28538 21035 ft 351 kts 143°
2026-04-25 19:11 52.46978 12.31089 21036 ft 351 kts 143°
2026-04-25 19:11 52.45088 12.33628 21033 ft 351 kts 143°
2026-04-25 19:11 52.43191 12.36177 21033 ft 351 kts 143°
2026-04-25 19:11 52.41331 12.38669 21032 ft 350 kts 143°
2026-04-25 19:12 52.39434 12.41210 21033 ft 350 kts 143°
2026-04-25 19:12 52.37542 12.43739 21034 ft 350 kts 143°
2026-04-25 19:12 52.35649 12.46270 21035 ft 350 kts 143°
2026-04-25 19:12 52.33787 12.48755 21030 ft 350 kts 143°
2026-04-25 19:13 52.31899 12.51273 21032 ft 349 kts 143°
2026-04-25 19:13 52.30009 12.53790 21028 ft 349 kts 144°
2026-04-25 19:13 52.28121 12.56298 21030 ft 349 kts 143°
2026-04-25 19:13 52.26234 12.58809 21030 ft 349 kts 144°
2026-04-25 19:14 52.24366 12.61287 21025 ft 349 kts 144°
2026-04-25 19:14 52.23110 12.62952 21026 ft 349 kts 144°
2026-04-25 19:14 52.20598 12.66279 21024 ft 349 kts 144°
2026-04-25 19:14 52.18731 12.68822 21021 ft 350 kts 139°
2026-04-25 19:15 52.17017 12.71635 21022 ft 349 kts 134°
2026-04-25 19:15 52.15367 12.74529 21022 ft 349 kts 134°
2026-04-25 19:15 52.13689 12.77399 21018 ft 349 kts 136°
2026-04-25 19:15 52.11949 12.80203 21018 ft 349 kts 138°
2026-04-25 19:16 52.10243 12.82908 21019 ft 348 kts 137°
2026-04-25 19:16 52.08505 12.85671 21015 ft 348 kts 137°
2026-04-25 19:16 52.06763 12.88442 21013 ft 348 kts 137°
2026-04-25 19:16 52.05057 12.91181 21014 ft 348 kts 137°
2026-04-25 19:17 52.03338 12.93953 21007 ft 348 kts 137°
2026-04-25 19:17 52.01617 12.96725 21007 ft 347 kts 137°
2026-04-25 19:17 51.99920 12.99448 21003 ft 347 kts 137°
2026-04-25 19:17 51.98197 13.02200 21000 ft 347 kts 137°
2026-04-25 19:18 51.96464 13.04963 21000 ft 347 kts 137°
2026-04-25 19:18 51.94739 13.07715 21001 ft 346 kts 137°
2026-04-25 19:18 51.93040 13.10427 20999 ft 346 kts 137°
2026-04-25 19:18 51.91318 13.13171 20995 ft 346 kts 137°
2026-04-25 19:19 51.89596 13.15909 20993 ft 346 kts 137°
2026-04-25 19:19 51.87896 13.18612 20991 ft 346 kts 137°
2026-04-25 19:19 51.86178 13.21339 20992 ft 345 kts 137°
2026-04-25 19:19 51.85036 13.23151 20991 ft 345 kts 137°
2026-04-25 19:20 51.82679 13.26858 20229 ft 363 kts 138°
2026-04-25 19:20 51.80824 13.29739 19614 ft 373 kts 138°
2026-04-25 19:20 51.78951 13.32707 19014 ft 380 kts 137°
2026-04-25 19:20 51.77044 13.35720 18527 ft 382 kts 137°
2026-04-25 19:21 51.75179 13.38656 18167 ft 377 kts 138°
2026-04-25 19:21 51.71476 13.44479 17331 ft 362 kts 137°
2026-04-25 19:21 51.69687 13.47336 16910 ft 361 kts 137°
2026-04-25 19:22 51.67924 13.50187 16513 ft 362 kts 137°
2026-04-25 19:22 51.66113 13.53032 16116 ft 362 kts 138°
2026-04-25 19:22 51.62491 13.58686 15365 ft 362 kts 138°
2026-04-25 19:23 51.60701 13.61472 15000 ft 353 kts 139°
2026-04-25 19:23 51.57252 13.66846 14174 ft 340 kts 139°
2026-04-25 19:23 51.55566 13.69472 13465 ft 340 kts 139°
2026-04-25 19:24 51.53871 13.72107 12671 ft 337 kts 139°
2026-04-25 19:24 51.52186 13.74721 11883 ft 334 kts 139°
2026-04-25 19:24 51.48867 13.79867 10398 ft 328 kts 139°
2026-04-25 19:25 51.45632 13.84872 9094 ft 315 kts 139°
2026-04-25 19:25 51.44066 13.87290 8389 ft 311 kts 139°
2026-04-25 19:25 51.42525 13.89674 7684 ft 308 kts 139°
2026-04-25 19:26 51.40986 13.92048 6994 ft 306 kts 139°
2026-04-25 19:26 51.39457 13.94403 6299 ft 303 kts 139°
2026-04-25 19:26 51.37942 13.96732 5578 ft 300 kts 138°
2026-04-25 19:26 51.36437 13.99045 4869 ft 298 kts 137°
2026-04-25 19:27 51.34926 14.01201 4342 ft 281 kts 150°
2026-04-25 19:27 51.33757 14.02009 3996 ft 269 kts 172°
2026-04-25 19:27 51.31472 14.01699 3341 ft 236 kts 214°
2026-04-25 19:27 51.30259 14.00163 2996 ft 211 kts 232°
2026-04-25 19:28 51.29240 13.98635 2986 ft 190 kts 231°
2026-04-25 19:28 51.28313 13.97315 2983 ft 171 kts 231°
2026-04-25 19:28 51.27455 13.96142 2970 ft 161 kts 232°
2026-04-25 19:28 51.26615 13.94988 2986 ft 144 kts 232°
2026-04-25 19:29 51.25944 13.94109 2969 ft 108 kts 235°
2026-04-25 19:29 51.25394 13.93359 2944 ft 102 kts 239°
2026-04-25 19:29 51.24891 13.92621 2917 ft 98 kts 240°
2026-04-25 19:29 51.24390 13.91886 2910 ft 97 kts 240°
2026-04-25 19:30 51.23875 13.91158 2893 ft 102 kts 239°
2026-04-25 19:30 51.23322 13.90386 2903 ft 110 kts 237°
2026-04-25 19:30 51.22724 13.89592 2919 ft 115 kts 236°
2026-04-25 19:30 51.22128 13.88817 2828 ft 105 kts 236°
2026-04-25 19:31 51.21516 13.87975 2659 ft 119 kts 237°
2026-04-25 19:31 51.20891 13.87087 2489 ft 124 kts 237°
2026-04-25 19:31 51.20236 13.86171 2319 ft 125 kts 235°
2026-04-25 19:31 51.19592 13.85292 2151 ft 118 kts 234°
2026-04-25 19:32 51.18983 13.84476 2002 ft 114 kts 234°
2026-04-25 19:32 51.18379 13.83634 1842 ft 117 kts 236°
2026-04-25 19:32 51.17783 13.82799 1691 ft 108 kts 234°
2026-04-25 19:32 51.17604 13.82548 1631 ft 103 kts 233°
2026-04-25 19:33 51.16721 13.81293 1385 ft 103 kts 229°
2026-04-25 19:33 51.16164 13.80566 1279 ft 102 kts 226°
2026-04-25 19:33 51.15612 13.79847 1148 ft 102 kts 228°
2026-04-25 19:33 51.15091 13.79080 987 ft 102 kts 227°
2026-04-25 19:34 51.14548 13.78334 829 ft 103 kts 224°
2026-04-25 19:34 51.14034 13.77627 724 ft 95 kts 225°
2026-04-25 19:34 51.13659 13.77076 725 ft 37 kts 222°
2026-04-25 19:34 51.13478 13.76842 728 ft 28 kts 224°
2026-04-25 19:35 51.13345 13.76783 730 ft 18 kts 132°
2026-04-25 19:35 51.13286 13.76892 729 ft 1 kts 131°
2026-04-25 19:35 51.13278 13.76905 729 ft 0 kts 131°
2026-04-25 19:35 51.13278 13.76906 729 ft 0 kts 131°
2026-04-25 19:36 51.13278 13.76907 729 ft 0 kts 131°
2026-04-25 19:37 51.13276 13.76910 729 ft 2 kts 131°
2026-04-25 19:37 51.13244 13.76960 729 ft 9 kts 148°
2026-04-25 19:37 51.13205 13.76957 732 ft 0 kts 211°
2026-04-25 19:38 51.13231 13.76975 730 ft 2 kts 155°
2026-04-25 19:38 51.13230 13.76986 730 ft 5 kts 122°
2026-04-25 19:38 51.13197 13.77056 733 ft 10 kts 130°
2026-04-25 19:38 51.13149 13.77077 737 ft 6 kts 214°
2026-04-25 19:39 51.13113 13.77028 739 ft 14 kts 221°
2026-04-25 19:39 51.12996 13.76867 741 ft 23 kts 217°
2026-04-25 19:39 51.12896 13.76730 744 ft 16 kts 221°
2026-04-25 19:39 51.12825 13.76631 744 ft 12 kts 222°
2026-04-25 19:40 51.12767 13.76555 743 ft 10 kts 206°
2026-04-25 19:40 51.12707 13.76615 747 ft 14 kts 132°
2026-04-25 19:40 51.12688 13.76761 746 ft 13 kts 35°
2026-04-25 19:40 51.12721 13.76745 747 ft 4 kts 347°
2026-04-25 19:41 51.12740 13.76770 745 ft 7 kts 46°
2026-04-25 19:41 51.12748 13.76780 746 ft 0 kts 41°